Location: La Chapelle
(48.3135°N, 1.3085°W)
Time: 11:15:34
(UTC+00:00)

H-2A R/B - Pass Details

Date: 03 March 2021
Orbit: 732 x 837 km, 98.2° (Epoch: 10 April)

Event Time Altitude Azimuth Distance (km) Brightness Sun altitude
Rises 19:41:27 0° 196° (SSW) 3,367 5.4 -18.8°
Reaches altitude 10° 19:44:07 10° 208° (SSW) 2,444 4.8 -19.2°
Maximum altitude 19:48:45 28° 267° (W) 1,514 4.2 -20.0°
Drops below altitude 10° 19:53:26 10° 326° (NW) 2,456 5.3 -20.8°
Sets 19:56:08 0° 338° (NNW) 3,388 5.9 -21.2°
